TimeCDT,TemperatureF,Dew PointF,Humidity,Sea Level PressureIn,VisibilityMPH,Wind Direction,Wind SpeedMPH,Gust SpeedMPH,PrecipitationIn,Events,Conditions,WindDirDegrees,DateUTC
12:16 AM,32.0,24.8,75,29.84,10.0,WNW,8.1,-,N/A,,Overcast,300,2013-10-21 05:16:00
12:36 AM,30.2,24.8,80,29.84,10.0,West,10.4,-,N/A,,Overcast,280,2013-10-21 05:36:00
12:56 AM,30.2,24.8,80,29.84,10.0,WNW,10.4,-,N/A,,Overcast,290,2013-10-21 05:56:00
1:16 AM,30.2,24.8,80,29.84,10.0,West,9.2,-,N/A,,Overcast,280,2013-10-21 06:16:00
1:36 AM,30.2,24.8,80,29.84,10.0,WNW,9.2,17.3,N/A,,Overcast,300,2013-10-21 06:36:00
1:56 AM,30.2,24.8,80,29.85,10.0,WNW,11.5,18.4,N/A,,Overcast,290,2013-10-21 06:56:00
2:16 AM,30.2,23.0,75,29.85,10.0,WNW,11.5,20.7,N/A,,Overcast,300,2013-10-21 07:16:00
2:36 AM,30.2,23.0,75,29.85,10.0,WNW,8.1,17.3,N/A,,Overcast,290,2013-10-21 07:36:00
2:56 AM,30.2,21.2,69,29.86,10.0,WNW,12.7,18.4,N/A,,Overcast,290,2013-10-21 07:56:00
3:16 AM,30.2,23.0,75,29.85,10.0,WNW,9.2,-,N/A,,Overcast,290,2013-10-21 08:16:00
3:36 AM,30.2,21.2,69,29.86,10.0,WNW,10.4,19.6,N/A,,Overcast,290,2013-10-21 08:36:00
3:56 AM,30.2,19.4,64,29.86,10.0,NW,9.2,19.6,N/A,,Overcast,310,2013-10-21 08:56:00
4:16 AM,30.2,21.2,69,29.86,10.0,WNW,6.9,18.4,N/A,,Overcast,290,2013-10-21 09:16:00
4:36 AM,30.2,21.2,69,29.86,10.0,West,15.0,23.0,N/A,,Overcast,280,2013-10-21 09:36:00
4:56 AM,28.4,21.2,74,29.86,10.0,WNW,12.7,-,N/A,,Overcast,290,2013-10-21 09:56:00
5:16 AM,28.4,21.2,74,29.86,10.0,WNW,5.8,-,N/A,,Overcast,290,2013-10-21 10:16:00
5:36 AM,28.4,21.2,74,29.86,10.0,West,8.1,-,N/A,,Overcast,270,2013-10-21 10:36:00
5:56 AM,28.4,21.2,74,29.86,10.0,WNW,10.4,18.4,N/A,,Overcast,290,2013-10-21 10:56:00
6:16 AM,28.4,21.2,74,29.86,10.0,West,11.5,18.4,N/A,,Overcast,280,2013-10-21 11:16:00
6:36 AM,28.4,21.2,74,29.86,10.0,West,10.4,16.1,N/A,,Overcast,280,2013-10-21 11:36:00
6:56 AM,28.4,21.2,74,29.86,10.0,West,13.8,18.4,N/A,,Overcast,280,2013-10-21 11:56:00
7:16 AM,28.4,21.2,74,29.86,10.0,West,8.1,-,N/A,,Overcast,280,2013-10-21 12:16:00
7:36 AM,28.4,21.2,74,29.86,10.0,West,11.5,20.7,N/A,,Overcast,280,2013-10-21 12:36:00
7:56 AM,28.4,21.2,74,29.85,10.0,North,-9999.0,-,N/A,,Overcast,0,2013-10-21 12:56:00
8:16 AM,28.4,21.2,74,29.86,10.0,West,6.9,19.6,N/A,,Overcast,260,2013-10-21 13:16:00
8:36 AM,28.4,21.2,74,29.86,10.0,West,8.1,18.4,N/A,,Overcast,260,2013-10-21 13:36:00
8:56 AM,28.4,21.2,74,29.86,10.0,West,11.5,17.3,N/A,,Overcast,270,2013-10-21 13:56:00
9:16 AM,28.4,21.2,74,29.85,10.0,West,11.5,17.3,N/A,,Overcast,270,2013-10-21 14:16:00
9:36 AM,28.4,19.4,69,29.85,10.0,West,16.1,20.7,N/A,,Overcast,270,2013-10-21 14:36:00
9:56 AM,28.4,21.2,74,29.85,10.0,West,10.4,19.6,N/A,,Overcast,270,2013-10-21 14:56:00
10:16 AM,30.2,21.2,69,29.84,10.0,West,11.5,-,N/A,Snow,Light Snow,260,2013-10-21 15:16:00
10:36 AM,30.2,21.2,69,29.84,10.0,West,9.2,20.7,N/A,Snow,Light Snow,270,2013-10-21 15:36:00
10:56 AM,30.2,21.2,69,29.84,10.0,West,8.1,20.7,N/A,Snow,Light Snow,280,2013-10-21 15:56:00
11:16 AM,30.2,21.2,69,29.84,10.0,West,17.3,21.9,N/A,,Overcast,280,2013-10-21 16:16:00
11:36 AM,30.2,23.0,75,29.84,10.0,West,10.4,19.6,N/A,,Overcast,280,2013-10-21 16:36:00
11:56 AM,30.2,23.0,75,29.85,10.0,West,10.4,20.7,N/A,,Overcast,280,2013-10-21 16:56:00
12:16 PM,30.2,24.8,80,29.85,7.0,WNW,12.7,17.3,N/A,Snow,Light Snow,290,2013-10-21 17:16:00
12:36 PM,30.2,26.6,86,29.85,5.0,WNW,8.1,16.1,N/A,Snow,Light Snow,290,2013-10-21 17:36:00
12:56 PM,30.2,24.8,80,29.85,10.0,WNW,11.5,19.6,N/A,Snow,Light Snow,300,2013-10-21 17:56:00
1:16 PM,30.2,26.6,86,29.85,10.0,WNW,12.7,26.5,N/A,,Overcast,300,2013-10-21 18:16:00
1:36 PM,30.2,26.6,86,29.84,10.0,WNW,10.4,16.1,N/A,,Overcast,300,2013-10-21 18:36:00
1:56 PM,30.2,26.6,86,29.84,7.0,WNW,12.7,20.7,N/A,,Overcast,290,2013-10-21 18:56:00
2:16 PM,32.0,26.6,80,29.84,10.0,WNW,9.2,17.3,N/A,,Overcast,290,2013-10-21 19:16:00
2:36 PM,32.0,26.6,80,29.84,10.0,West,10.4,18.4,N/A,,Overcast,280,2013-10-21 19:36:00
2:56 PM,33.8,26.6,75,29.84,10.0,WNW,13.8,21.9,N/A,,Overcast,290,2013-10-21 19:56:00
3:16 PM,33.8,26.6,75,29.84,10.0,WNW,13.8,20.7,N/A,,Overcast,290,2013-10-21 20:16:00
3:36 PM,33.8,26.6,75,29.85,10.0,West,10.4,21.9,N/A,,Overcast,280,2013-10-21 20:36:00
3:56 PM,33.8,26.6,75,29.85,10.0,West,9.2,17.3,N/A,,Overcast,280,2013-10-21 20:56:00
4:15 PM,33.8,26.6,75,29.85,10.0,WNW,12.7,17.3,N/A,,Overcast,300,2013-10-21 21:15:00
4:35 PM,33.8,26.6,75,29.86,10.0,West,10.4,16.1,N/A,,Overcast,280,2013-10-21 21:35:00
4:56 PM,33.8,26.6,75,29.86,10.0,WNW,11.5,-,N/A,,Overcast,290,2013-10-21 21:56:00
5:16 PM,33.8,26.6,75,29.87,10.0,WNW,9.2,18.4,N/A,,Overcast,300,2013-10-21 22:16:00
5:36 PM,33.8,26.6,75,29.87,10.0,WNW,6.9,-,N/A,,Overcast,290,2013-10-21 22:36:00
5:56 PM,33.8,26.6,75,29.87,10.0,WNW,11.5,20.7,N/A,,Overcast,290,2013-10-21 22:56:00
6:15 PM,33.8,28.4,81,29.88,10.0,West,8.1,16.1,N/A,,Overcast,280,2013-10-21 23:15:00
6:36 PM,33.8,28.4,81,29.88,10.0,WNW,8.1,-,N/A,,Overcast,300,2013-10-21 23:36:00
6:56 PM,33.8,28.4,81,29.89,10.0,West,9.2,-,N/A,,Overcast,280,2013-10-21 23:56:00
7:16 PM,33.8,28.4,81,29.89,10.0,WNW,8.1,-,N/A,,Overcast,300,2013-10-22 00:16:00
7:36 PM,33.8,28.4,81,29.90,10.0,WNW,10.4,-,N/A,,Overcast,290,2013-10-22 00:36:00
7:56 PM,33.8,28.4,81,29.90,10.0,WNW,6.9,-,N/A,,Overcast,300,2013-10-22 00:56:00
8:16 PM,33.8,28.4,81,29.90,10.0,NW,4.6,-,N/A,,Overcast,310,2013-10-22 01:16:00
8:36 PM,33.8,28.4,81,29.90,10.0,WNW,9.2,16.1,N/A,,Overcast,300,2013-10-22 01:36:00
8:56 PM,33.8,28.4,81,29.90,10.0,WNW,6.9,-,N/A,,Overcast,300,2013-10-22 01:56:00
9:16 PM,33.8,28.4,81,29.90,10.0,WNW,6.9,-,N/A,,Overcast,300,2013-10-22 02:16:00
9:36 PM,33.8,28.4,81,29.90,10.0,WNW,5.8,-,N/A,,Overcast,300,2013-10-22 02:36:00
9:56 PM,33.8,28.4,81,29.90,10.0,WNW,6.9,-,N/A,,Overcast,300,2013-10-22 02:56:00
10:16 PM,33.8,28.4,81,29.90,10.0,WNW,5.8,-,N/A,,Overcast,300,2013-10-22 03:16:00
10:36 PM,33.8,30.2,87,29.90,10.0,WNW,5.8,-,N/A,,Overcast,300,2013-10-22 03:36:00
10:56 PM,33.8,28.4,81,29.90,10.0,WNW,5.8,-,N/A,,Overcast,300,2013-10-22 03:56:00
11:16 PM,33.8,30.2,87,29.90,10.0,WNW,5.8,-,N/A,,Overcast,290,2013-10-22 04:16:00
11:36 PM,33.8,30.2,87,29.91,10.0,WNW,5.8,-,N/A,,Overcast,300,2013-10-22 04:36:00
11:56 PM,33.8,30.2,87,29.91,10.0,NNW,5.8,-,N/A,,Overcast,330,2013-10-22 04:56:00